Simultaneous Nadir Overpasses (SNOs) Predictions

Prediction of SNOs between LANDSAT-8 and METOP-A Satellite Orbit:

Table of predicted SNOs for the next 14.0 days since TLE Epoch: 12/24/2016
Index Date (LANDSAT-8) Time (LANDSAT-8) Lat,Lon (LANDSAT-8) SZA (LANDSAT-8 ) Date (METOP-A) Time (METOP-A) Lat,Lon (METOP-A) SZA (METOP-A ) Distance(km) Time Diff (sec)
1 12/25/2016 12:15:56 81.14, 36.00 106.43 12/25/2016 12:15:23 81.13, 35.94 106.40 1.24 33
2 12/25/2016 13:05:22 -81.15,-156.06 73.54 12/25/2016 13:06:02 -81.16,-155.88 73.50 3.00 40
3 12/28/2016 07:50:11 81.14, 102.48 106.28 12/28/2016 07:49:46 81.14, 102.50 106.27 0.42 25
4 12/28/2016 08:39:37 -81.16, -89.56 73.68 12/28/2016 08:40:26 -81.15, -89.70 73.68 2.55 49
5 12/31/2016 03:24:26 81.14, 168.91 106.06 12/31/2016 03:24:09 81.14, 169.04 106.07 2.09 17
6 12/31/2016 04:13:52 -81.16, -23.10 73.89 12/31/2016 04:14:49 -81.16, -23.15 73.88 1.12 57
7 01/02/2017 22:58:40 81.14,-124.69 105.79 01/02/2017 22:58:32 81.13,-124.82 105.77 2.33 8
8 01/02/2017 23:48:06 -81.16, 43.33 74.17 01/02/2017 23:49:11 -81.16, 43.37 74.14 0.79 65
9 01/05/2017 17:43:30 -81.11, 133.68 74.61 01/05/2017 17:42:16 -81.12, 133.86 74.61 3.32 74
10 01/05/2017 18:32:55 81.13, -58.32 105.44 01/05/2017 18:32:55 81.13, -58.31 105.45 0.48 0




NCC Satellite Simultaneous Nadir Overpasses (SNOs) Prediction Service
